User: anonymous   Login
Location: Zlin
(49.2330°N, 17.6670°E)
Time: 00:11:20
(UTC+01:00)
Language:

CUTE-I - Orbit

View from above orbital plane
View from above orbital plane
View from above satellite
View from above satellite

Ground track
Ground track

The orbit data is extracted from the following two-line orbital elements,

1 27844U 03031E   23332.58767352  .00000811  00000-0  37928-3 0  9990
2 27844  98.6790 337.4699 0010043  15.7873 344.3616 14.22977993 59112
Epoch (UTC): 28 November 2023 14:06:14
Eccentricity: 0.0010043
inclination: 98.6790°
perigee height: 808 km
apogee height: 822 km
right ascension of ascending node: 337.4699°
argument of perigee: 15.7873°
revolutions per day: 14.22977993
mean anomaly at epoch: 344.3616°
orbit number at epoch: 5911

The dashed part of the orbit path shows where the satellite is in the earth's shadow,  

DLR